Location: Alpha Ridge Park
(39.3209°N, 76.9128°W)
Time: 22:04:58
(UTC-04:00)

Tiros 1 - Visible Passes

Search period start: 14 October 2019 00:00
Search period end: 24 October 2019 00:00
Orbit: 630 x 664 km, 48.4° (Epoch: 14 October)

Date Brightness Start Highest point End Pass type
(mag) Time Alt. Az. Time Alt. Az. Time Alt. Az.
14 Oct 7.2 05:06:52 78° NNE 05:06:52 78° NNE 05:11:26 10° ENE visible
14 Oct 8.3 06:44:57 10° WNW 06:49:17 32° NNW 06:53:37 10° NE visible
15 Oct 10.0 03:54:22 14° ENE 03:54:22 14° ENE 03:55:09 10° ENE visible
15 Oct 7.6 05:32:02 44° NW 05:32:48 48° NNW 05:37:28 10° NE visible
16 Oct 9.3 04:19:28 24° ENE 04:19:28 24° ENE 04:21:23 10° ENE visible
16 Oct 8.2 05:57:09 23° WNW 05:59:12 33° NNW 06:03:34 10° NE visible
17 Oct 8.6 04:44:32 33° NNE 04:44:32 33° NNE 04:47:26 10° NE visible
17 Oct 8.6 06:22:12 13° WNW 06:25:44 28° N 06:29:53 10° NE visible
18 Oct 8.3 05:09:34 33° N 05:09:34 33° N 05:13:32 10° NE visible
18 Oct 8.6 06:48:08 10° NW 06:52:18 28° N 06:56:28 10° ENE visible
19 Oct 10.1 03:56:54 13° NE 03:56:54 13° NE 03:57:24 10° NE visible
19 Oct 8.5 05:34:34 25° NNW 05:35:39 28° N 05:39:49 10° NE visible
20 Oct 9.6 04:21:54 19° NE 04:21:54 19° NE 04:23:29 10° NE visible
20 Oct 8.6 05:59:34 17° NW 06:02:13 28° N 06:06:22 10° ENE visible
21 Oct 9.0 04:46:54 25° NNE 04:46:54 25° NNE 04:49:44 10° NE visible
21 Oct 8.4 06:24:34 11° NW 06:28:45 34° NNE 06:33:08 10° E visible
22 Oct 8.6 05:11:55 27° N 05:12:08 28° N 05:16:16 10° ENE visible
22 Oct 7.9 06:50:26 10° NW 06:55:08 50° NNE 06:59:49 10° E visible
23 Oct 10.2 03:59:17 12° NE 03:59:17 12° NE 03:59:40 10° NE visible
23 Oct 8.5 05:36:57 25° NNW 05:38:40 33° NNE 05:43:02 10° ENE visible
